TimeCDT,TemperatureF,Dew PointF,Humidity,Sea Level PressureIn,VisibilityMPH,Wind Direction,Wind SpeedMPH,Gust SpeedMPH,PrecipitationIn,Events,Conditions,WindDirDegrees,DateUTC
12:53 AM,59.0,46.0,62,29.99,10.0,North,15.0,-,N/A,,Clear,10,2012-10-10 05:53:00
1:53 AM,57.9,46.9,67,30.00,10.0,NNE,16.1,-,N/A,,Clear,20,2012-10-10 06:53:00
2:53 AM,57.0,48.0,72,30.02,10.0,NNE,17.3,-,N/A,,Clear,30,2012-10-10 07:53:00
3:53 AM,55.9,46.9,72,30.03,10.0,NNE,16.1,-,N/A,,Clear,30,2012-10-10 08:53:00
4:53 AM,55.0,44.1,67,30.05,10.0,NNE,12.7,-,N/A,,Partly Cloudy,20,2012-10-10 09:53:00
6:28 AM,55.4,44.6,67,30.13,10.0,NE,10.4,-,N/A,,Overcast,40,2012-10-10 11:28:00
6:53 AM,55.9,45.0,67,30.11,10.0,NE,12.7,-,N/A,,Overcast,50,2012-10-10 11:53:00
7:53 AM,57.0,44.1,62,30.13,10.0,NE,19.6,-,N/A,,Overcast,40,2012-10-10 12:53:00
8:53 AM,57.0,43.0,59,30.15,10.0,NE,18.4,-,N/A,,Overcast,40,2012-10-10 13:53:00
9:53 AM,57.0,42.1,57,30.17,10.0,ENE,19.6,-,N/A,,Overcast,60,2012-10-10 14:53:00
10:53 AM,57.9,43.0,58,30.19,10.0,ENE,16.1,-,N/A,,Overcast,60,2012-10-10 15:53:00
11:53 AM,61.0,44.1,54,30.19,10.0,ENE,13.8,-,N/A,,Overcast,70,2012-10-10 16:53:00
12:50 PM,60.8,46.4,59,30.20,10.0,ENE,12.7,-,N/A,,Overcast,70,2012-10-10 17:50:00
12:53 PM,62.1,46.0,56,30.18,10.0,ENE,10.4,-,N/A,,Overcast,70,2012-10-10 17:53:00
1:53 PM,63.0,46.0,54,30.15,10.0,ENE,10.4,-,N/A,,Overcast,60,2012-10-10 18:53:00
2:10 PM,62.6,46.4,55,30.17,10.0,ENE,10.4,-,N/A,,Overcast,60,2012-10-10 19:10:00
2:53 PM,64.0,46.9,54,30.12,10.0,ENE,10.4,-,N/A,,Overcast,60,2012-10-10 19:53:00
3:53 PM,64.0,46.9,54,30.11,10.0,ENE,8.1,-,N/A,,Overcast,60,2012-10-10 20:53:00
4:53 PM,64.0,46.9,54,30.10,10.0,East,9.2,-,N/A,,Overcast,100,2012-10-10 21:53:00
5:53 PM,63.0,48.0,58,30.11,10.0,SE,9.2,-,N/A,,Overcast,130,2012-10-10 22:53:00
6:53 PM,62.1,48.0,60,30.08,10.0,ESE,8.1,-,N/A,,Overcast,110,2012-10-10 23:53:00
7:53 PM,62.1,48.0,60,30.08,10.0,East,4.6,-,N/A,,Overcast,100,2012-10-11 00:53:00
8:53 PM,61.0,48.9,64,30.08,10.0,East,6.9,-,N/A,,Overcast,100,2012-10-11 01:53:00
9:53 PM,61.0,51.1,70,30.09,10.0,SE,6.9,-,N/A,,Overcast,140,2012-10-11 02:53:00
10:53 PM,57.0,51.1,81,30.09,10.0,SE,5.8,-,N/A,,Partly Cloudy,140,2012-10-11 03:53:00
11:49 PM,59.0,51.8,77,30.11,10.0,SSE,5.8,-,N/A,,Overcast,150,2012-10-11 04:49:00
11:53 PM,59.0,52.0,78,30.09,10.0,SSE,5.8,-,N/A,,Overcast,150,2012-10-11 04:53:00